Location: Triton
(47.6048°N, 122.9899°W)
Time: 14:00:59
(UTC+00:00)

BlueWalker 3 - Pass Details

Date: 22 February 2026
Orbit: 451 x 457 km, 53.2° (Epoch: 14 March)

Event Time Altitude Azimuth Distance (km) Brightness Sun altitude
Rises 14:12:33 0° 201° (SSW) 2,462 5.3 -9.6°
Reaches altitude 10° 14:15:02 10° 185° (S) 1,592 4.5 -9.1°
Maximum altitude 14:17:45 21° 135° (SE) 1,093 4.4 -8.7°
Drops below altitude 10° 14:20:29 10° 85° (E) 1,597 6.1 -8.2°
Sets 14:22:59 0° 69° (ENE) 2,474 6.7 -7.8°
